User: anonymous   Login
Location: Unspecified
(0.0000°N, 0.0000°E)
Time: 13:03:01
(UTC+00:00)
Language:

Injun/Solrad 3 - Orbit

View from above orbital plane
View from above orbital plane
View from above satellite
View from above satellite

Ground track
Ground track

The orbit data is extracted from the following two-line orbital elements,

1   117U 61015B   18144.95587403 -.00000044 +00000-0 +25597-4 0  9992
2   117 066.8126 342.3449 0080166 202.0326 157.7300 13.89825405884777
Epoch (UTC): 24 May 2018 22:56:27
Eccentricity: 0.0080166
inclination: 66.8126°
perigee height: 870 km
apogee height: 988 km
right ascension of ascending node: 342.3449°
argument of perigee: 202.0326°
revolutions per day: 13.89825405
mean anomaly at epoch: 157.7300°
orbit number at epoch: 88477

The dashed part of the orbit path shows where the satellite is in the earth's shadow,  

DLR